Helicity
46 39 33 55 75 113 108 87 74 187 142 62 141 116 92 92 82 111 70 57 47 59 53 60 74 90 74 82 53 63 58 46 53 48 47 27 65 69 64 51 56 75 69 89
57 38 41 55 56 29 100 81 122 135 61 55 119 106 85 88 46 42 46 45 40 38 50 73 70 60 52 68 43 48 42 36 37 28 33 30 19 24 26 51 31 30 40 37
51 55 40 47 51 24 18 36 24 74 49 86 72 55 56 32 61 52 36 22 25 32 34 31 61 50 43 66 67 64 60 46 51 60 67 46 30 24 -9 -3 21 18 23 25
35 55 62 47 41 47 31 28 52 50 35 61 37 39 36 34 22 36 15 33 33 63 54 44 52 51 46 51 38 43 34 29 53 63 68 41 56 39 -5 -11 -12 -14 25 11
6 29 41 62 44 24 11 43 37 21 39 50 19 7 2 -15 10 -7 16 18 32 23 35 36 39 36 27 26 22 25 21 17 15 28 29 53 53 50 12 6 -19 -28 -15 6
5 4 18 21 48 -10 7 30 12 12 7 -1 10 21 0 -7 1 5 -18 -9 -13 -19 -5 13 25 23 18 22 3 11 24 18 11 61 41 45 65 59 81 45 29 11 25 7
20 0 -8 18 26 0 3 14 9 -4 15 -9 -9 -7 0 -4 -10 -2 -9 -24 -28 -24 -10 1 -15 1 23 35 39 55 56 49 64 80 10 55 43 40 48 45 35 39 14 4
34 17 -13 -24 34 20 11 -15 -19 -20 -9 -19 -18 -18 -26 -26 -19 -20 -19 -34 -33 -41 -70 -64 -43 -29 -18 2 33 85 87 77 51 46 52 44 21 49 46 33 -12 73 43 36
42 37 12 -16 -29 33 24 24 -5 -35 -30 -12 -32 -29 -30 -43 -60 -59 -41 -52 -54 -80 -71 -39 9 27 13 22 35 91 125 84 77 57 48 49 14 25 37 17 -4 17 42 47
36 37 36 12 -11 -27 23 23 22 26 14 -10 1 -7 -3 5 -18 -37 -62 -73 -62 -45 3 49 78 82 99 81 74 70 65 77 121 101 80 27 39 54 37 18 9 11 16 20
35 32 22 25 21 -1 10 4 33 48 29 19 52 29 56 52 51 89 73 25 14 30 31 37 54 73 87 96 96 103 111 93 73 91 89 29 58 85 61 34 25 15 33 46
43 51 42 17 13 18 38 55 -6 18 26 33 54 46 53 67 72 84 80 118 130 141 151 110 93 77 98 105 98 137 96 103 117 128 83 68 41 63 62 60 52 43 55 60
40 52 52 61 30 40 43 68 29 0 -36 -31 25 26 66 103 72 73 108 106 131 161 146 166 189 183 180 108 70 105 132 181 195 168 88 68 51 58 75 90 71 73 78 94
42 51 56 55 71 51 59 70 66 73 65 22 -26 -13 5 51 97 99 123 130 133 154 155 154 193 217 176 207 193 226 198 228 201 169 146 113 63 92 100 115 122 124 122 110
54 46 66 65 74 75 66 58 77 93 120 109 32 -30 25 59 63 61 77 96 129 151 169 214 229 222 178 204 261 254 318 260 236 189 195 141 92 92 125 161 156 135 144 148
58 55 62 80 91 88 79 62 60 69 108 129 71 57 75 46 56 89 104 105 122 179 209 212 228 271 244 202 191 227 177 141 107 146 157 135 107 95 99 119 137 152 148 147
55 63 69 80 98 125 99 86 76 52 71 119 55 53 51 60 68 70 89 103 139 173 220 246 270 289 275 337 311 295 147 75 24 68 101 97 120 73 90 151 169 172 194 186
72 66 72 94 94 117 118 113 137 127 113 119 59 55 87 111 122 122 95 128 145 163 234 258 213 195 228 228 173 38 39 62 24 46 99 95 127 200 202 213 211 208 187 180
91 77 102 122 121 96 100 122 156 152 172 107 120 122 54 98 97 111 117 127 141 163 161 167 180 224 280 153 113 99 46 43 67 55 93 128 154 224 248 253 189 185 160 147
204 206 143 91 93 89 108 133 119 147 201 305 229 208 140 140 112 90 95 97 86 123 105 122 146 157 109 19 56 62 49 61 75 145 135 163 166 145 152 134 128 125 134 137
269 189 199 192 112 106 106 91 146 131 131 129 120 170 165 114 142 104 84 94 105 124 99 124 109 65 69 79 64 59 62 69 98 137 112 160 149 162 146 131 122 134 128 116
237 268 264 213 225 251 224 201 201 190 164 195 174 136 155 130 127 126 96 101 116 99 139 134 81 70 70 91 79 39 36 67 101 49 81 123 133 148 132 137 142 126 123 124
427 312 288 199 195 264 238 205 236 162 198 145 183 226 174 162 130 148 117 123 109 163 139 110 74 102 109 79 63 23 33 73 96 75 75 116 142 146 146 147 128 132 117 102
351 254 269 206 207 219 280 341 260 250 154 155 235 262 182 178 157 152 149 141 148 152 130 70 116 126 144 105 56 25 29 64 95 104 100 114 132 133 130 117 116 113 103 95
366 296 204 228 357 404 291 240 237 225 203 277 271 274 217 190 191 147 194 186 147 109 71 78 131 149 149 111 83 63 81 72 99 123 118 110 142 147 134 117 109 104 114 119
375 357 370 339 318 240 301 308 304 242 307 315 312 239 217 181 188 212 150 225 123 64 85 92 156 157 126 100 90 81 86 114 115 134 109 124 136 140 127 125 110 110 115 132
405 273 338 373 381 291 296 338 310 261 435 467 312 313 217 271 215 247 211 170 100 40 43 85 139 151 127 96 79 77 101 112 129 146 161 142 152 173 167 140 113 120 107 102
Wind_Speed
31 23 15 16 19 24 32 45 62 17 19 51 46 49 44 44 47 44 44 41 40 44 41 37 35 35 33 40 39 32 30 27 24 25 22 19 19 18 15 20 20 18 21 20
27 25 19 14 18 25 36 50 48 29 32 61 54 47 47 42 39 38 37 35 36 35 37 38 35 32 30 40 34 28 28 24 19 21 23 22 20 19 17 21 23 19 22 27
27 19 16 14 17 29 37 46 54 43 43 45 50 49 46 47 34 35 29 31 33 33 36 31 38 34 31 36 32 28 28 25 25 24 20 19 20 24 27 21 25 23 27 27
26 17 13 9 4 29 41 45 47 43 49 44 45 45 45 47 43 33 30 38 36 39 39 38 37 33 29 32 27 27 26 22 21 18 20 20 20 21 21 21 27 20 29 28
18 14 12 12 9 19 33 41 45 43 43 40 43 43 43 40 38 36 38 40 34 33 38 36 35 31 29 29 25 24 23 18 14 11 18 19 18 22 23 26 27 29 31 27
25 15 7 10 20 20 33 34 36 39 37 37 40 39 37 36 35 38 36 32 32 32 33 30 29 29 27 25 21 20 19 15 11 13 16 12 15 25 27 27 28 29 29 28
38 26 20 25 48 40 32 33 33 32 34 35 36 34 33 32 32 33 31 30 31 29 24 24 25 25 24 23 22 21 16 13 15 10 10 19 24 25 24 23 25 27 26 28
39 41 30 28 49 50 32 29 28 28 28 29 29 30 30 28 26 28 27 27 27 21 20 20 19 19 18 18 18 19 17 16 14 17 13 13 12 20 22 21 19 23 21 21
37 40 39 32 27 49 38 32 27 25 23 24 28 27 27 25 24 23 24 24 22 20 20 20 18 16 14 17 15 21 19 17 14 17 12 16 21 23 25 25 15 20 20 19
31 34 35 35 30 28 32 34 31 24 19 18 20 20 22 22 20 18 16 17 16 17 17 15 15 14 17 16 18 20 17 13 4 6 8 10 11 18 24 18 19 23 19 18
26 31 31 30 32 30 24 19 34 33 23 16 12 12 12 12 13 11 14 14 15 17 16 18 18 19 21 24 21 25 24 24 20 22 19 16 21 22 16 19 25 20 18 16
29 30 31 28 24 29 24 18 19 17 12 23 31 20 16 12 11 13 15 17 21 22 24 24 27 27 27 26 34 27 29 16 28 14 22 26 14 14 17 25 24 17 15 18
33 35 32 36 33 40 27 19 17 17 11 9 11 8 22 20 15 19 22 22 23 26 26 29 31 37 36 43 38 40 38 33 32 37 32 21 9 13 15 22 21 21 21 19
37 39 39 39 39 45 44 24 22 23 18 15 13 17 15 14 10 16 21 23 26 27 25 16 24 31 39 47 48 50 52 45 48 44 48 42 31 31 29 27 27 27 27 27
37 39 37 38 40 43 40 30 27 24 23 25 14 9 10 11 14 14 9 8 11 12 14 17 19 19 22 49 65 68 53 56 55 50 51 45 47 46 34 25 21 20 20 23
39 40 39 34 39 41 38 33 29 31 27 29 29 32 25 19 14 11 8 8 12 15 17 20 20 18 19 21 18 51 55 52 52 65 66 58 57 51 41 27 22 21 23 24
39 40 41 35 35 31 29 28 33 35 31 28 29 27 28 27 23 20 18 16 19 19 24 23 25 24 20 27 32 23 46 68 75 74 67 67 55 56 40 35 27 23 26 28
35 40 40 36 33 34 34 30 27 29 30 28 28 27 26 20 20 21 22 23 24 22 23 29 30 31 23 25 22 18 22 53 69 62 51 57 55 44 38 32 27 28 30 30
39 39 36 39 38 36 35 31 32 29 24 29 26 29 32 21 21 24 25 25 29 28 29 30 33 30 25 22 21 21 22 22 30 57 56 52 47 35 29 26 27 29 29 29
28 33 39 43 38 32 30 36 36 30 25 24 32 24 28 20 23 27 29 27 29 34 32 33 33 33 16 14 16 22 26 25 22 21 20 35 36 28 23 21 24 25 27 30
39 44 46 38 35 37 40 40 35 31 37 29 29 13 21 20 28 28 25 30 32 38 35 36 39 38 36 35 38 41 33 26 20 10 15 20 27 15 14 21 26 28 29 33
36 35 37 38 41 44 44 40 39 35 41 29 25 19 20 22 23 27 28 33 33 36 34 38 40 34 33 37 46 45 44 40 35 26 19 17 19 13 15 18 19 26 32 35
36 44 46 47 46 52 45 43 42 42 36 23 16 19 18 25 26 31 31 33 33 33 36 35 30 31 35 38 42 42 43 41 36 30 26 21 17 18 18 17 22 25 30 35
53 50 60 56 48 51 48 47 44 39 36 19 14 20 27 25 27 30 36 34 36 39 39 34 30 28 32 38 38 37 37 34 31 27 25 22 19 14 20 24 23 24 27 30
59 55 68 65 59 57 47 40 40 36 21 17 24 33 31 30 33 31 33 38 39 36 39 34 25 26 31 37 36 33 32 27 24 19 17 16 16 13 11 22 28 31 30 30
66 69 74 64 62 65 57 48 44 30 18 23 33 39 41 41 37 36 34 38 38 44 30 22 24 28 32 35 33 30 28 25 20 16 12 10 9 10 9 13 28 33 29 32
78 85 77 69 63 61 59 51 43 29 30 40 38 46 44 33 44 44 33 41 41 32 25 20 23 29 34 35 33 31 27 25 20 15 11 9 10 13 14 12 16 29 40 39
Wind_Direction
70 72 82 86 86 97 109 113 108 132 142 128 131 129 139 144 144 148 143 150 155 155 164 169 171 165 170 164 164 165 170 175 191 185 154 173 160 152 149 168 153 151 150 115
64 69 74 84 97 107 112 110 113 126 136 116 120 133 136 144 147 147 154 162 163 170 167 163 170 176 179 159 170 172 161 164 167 172 158 173 198 213 214 171 167 163 164 130
62 50 57 73 105 114 117 114 107 113 119 124 124 126 130 134 149 153 169 170 172 176 164 183 158 161 175 170 174 163 145 159 153 138 160 176 198 242 265 206 164 178 161 146
61 50 25 11 63 122 120 109 108 117 112 115 119 125 129 129 133 151 160 154 156 156 152 155 158 166 172 165 176 169 173 160 161 184 195 189 195 202 213 195 185 231 123 147
64 55 45 339 315 146 125 111 113 121 118 121 122 124 125 126 133 138 141 143 154 158 150 153 151 161 164 153 176 170 171 158 168 198 162 161 190 186 177 163 158 163 159 172
63 66 43 333 312 133 121 137 136 124 123 123 124 127 129 131 134 137 138 145 150 153 154 164 177 180 183 178 177 169 159 155 142 131 142 186 170 164 148 150 152 146 151 154
53 63 68 305 336 61 127 132 142 136 126 125 128 135 139 140 140 140 145 145 142 151 186 192 179 184 189 183 183 161 133 123 113 149 137 121 111 135 142 151 164 159 166 160
46 49 62 69 337 3 96 142 141 140 143 149 144 140 143 152 161 148 149 151 153 175 163 151 152 144 143 136 148 150 132 103 103 106 119 207 146 119 108 109 153 147 132 116
37 41 47 60 73 353 17 55 117 127 121 147 166 148 153 146 151 161 156 161 162 145 115 105 107 107 104 110 104 76 80 84 93 73 94 114 90 87 72 60 168 104 106 104
37 36 42 47 60 69 50 356 8 61 85 117 126 148 150 134 131 136 144 145 129 114 79 63 56 51 49 44 42 42 49 55 125 128 96 164 111 73 46 90 88 61 73 79
35 32 38 47 47 57 80 106 341 344 19 37 73 81 109 99 118 103 81 66 68 45 41 36 29 23 19 10 12 9 5 9 12 16 16 26 45 35 51 41 15 29 26 32
18 23 27 40 54 49 66 99 110 66 54 359 344 360 5 16 24 29 27 20 19 19 12 11 6 355 352 347 340 351 343 355 349 353 351 355 6 349 356 350 349 357 0 356
358 3 11 9 26 12 50 81 99 99 123 161 32 33 344 344 350 348 346 349 349 346 350 344 340 329 332 326 327 327 326 322 319 325 331 328 315 313 309 328 332 339 341 341
339 344 347 351 354 348 349 45 64 66 90 75 114 129 139 48 21 354 345 349 349 350 351 341 330 325 323 318 317 314 309 313 311 306 307 309 300 301 306 309 316 321 327 330
330 333 340 340 342 339 351 6 13 30 39 32 49 157 136 108 129 142 100 65 23 13 357 344 330 336 319 318 310 306 304 301 299 299 308 309 312 314 317 303 299 309 319 326
320 321 329 338 334 336 349 2 2 353 8 14 18 3 16 45 58 61 60 65 25 10 4 358 353 351 351 342 302 321 311 311 302 298 303 301 305 309 313 308 302 306 311 320
314 316 320 330 334 339 342 351 350 345 356 5 7 14 16 7 22 30 34 42 19 8 1 354 348 351 351 336 296 311 322 312 307 302 297 297 299 302 303 303 305 308 315 320
312 311 314 322 330 332 326 328 334 344 348 355 354 359 2 17 20 20 24 19 17 18 7 3 360 3 5 353 352 6 354 337 320 315 311 302 303 300 297 297 298 300 306 313
306 307 312 315 316 319 325 331 326 326 333 340 341 342 346 16 12 14 12 11 1 10 4 5 11 9 5 354 351 349 351 351 334 325 318 312 307 303 296 292 292 296 302 310
312 307 305 305 311 322 330 326 323 323 320 318 315 329 330 357 0 358 1 8 6 359 6 13 5 357 348 349 346 345 343 342 344 338 332 327 316 310 304 298 301 303 307 313
297 295 295 304 311 311 311 308 312 319 316 318 321 293 317 343 336 341 358 356 359 353 2 3 2 4 14 22 14 7 8 7 4 2 348 338 328 323 318 314 313 312 315 317
287 299 303 300 298 297 296 297 305 307 308 316 316 321 325 338 346 343 348 344 352 345 0 356 357 7 13 16 12 17 20 25 33 47 44 26 348 338 330 334 330 322 321 324
288 290 289 289 285 279 284 283 293 301 309 313 318 321 332 335 334 336 337 335 335 350 347 349 356 7 6 9 13 16 21 26 34 41 48 54 42 360 343 343 336 334 331 329
270 273 273 274 280 278 274 277 290 292 305 302 305 318 325 330 323 329 327 331 334 334 335 342 359 6 7 6 10 11 11 19 28 39 48 56 65 52 355 337 341 343 340 340
262 266 268 267 272 277 286 282 290 293 295 285 297 311 315 318 318 322 325 324 322 324 332 342 358 7 6 3 6 9 9 15 23 36 45 50 52 55 33 347 336 335 338 340
259 263 265 269 270 271 275 277 277 280 263 286 299 301 304 302 310 311 308 316 315 325 330 342 353 356 358 358 1 4 6 5 12 22 29 32 35 23 19 357 336 333 338 338
255 259 258 265 272 273 271 270 270 260 258 271 287 286 290 306 303 304 308 307 321 327 336 342 344 346 349 352 356 357 357 352 350 352 359 353 2 9 4 347 344 334 328 331